Погода в Худжанде

Погода в Худжанде : погода сейчас, прогноз погоды и архив. Всё, что Вы хотите узнать о погоде в Худжанде!

Поиск расширенной информации на нашем сайте:

Другие новости

Новости СМИ2

Главная страница сайта

Новости сайта

03.07.2017

Напоминаем, что на нашем специализированном сайте Метеоцентр.Азия вы можете получить высокодетализированные автоматические прогнозы погоды по пунктам России, СНГ и мира в авиационном формате (включающие направление и скорость ветра, видимость, явления погоды, количество и форму облачности, нижнюю и верхнюю границу облачности).

Рекомендуем: Как разбавить дресс-код?

Погода в Худжанде - сегодня

Время (UTC), дата Ветер
(°,м/с) 
Видим.   Явления Облачность Т
(°С)
Тd
(°С)
f(%) Тe
(°С)
Pmin
(гПа)
dP
(гПа)
Po
(мм)
O2
(г/м3)
Тmin Tmax R s Состояние
почвы
00 15.02.18 250 (З) 10  4000 м  дымка{ливн. осадки, дождь}  10/10 120 м кучево-дожд. 
[Cb cap]
+0.5 +0.5 100 -4  1019.1  725  291           
03 15.02.18 260 (З) 12{19}  2000 м  снег  10/10 240 м кучево-дожд. 
[Cb cap]
-1.2 -1.2 100 -7  1026  6.2  730  295  -1.2    мокрый или
старый снег
50-90% 
06 15.02.18 260 (З) 12  4000 м  в посл. час ливневой снег  10/10 200 м кучево-дожд. 
[Cb cap]
-1.2 -1.5 98 -7  1030.6  4.4  733  297  -0.1       
09 15.02.18 250 (З) 11  4000 м  дымка{ливн. осадки}  10/10 300 м кучево-дожд. 
[Cb cap]
-1.2 -1.9 95 -7  1033.6  2.8  735  298           
12 15.02.18 240 (ЮЗ) 4000 м  дымка{ливн. осадки}  10/10 1470 м кучево-дожд. 
[Cb cap]
-1.5 -1.8 98 -6  1035.6  1.8  736  299           
15 15.02.18 230 (ЮЗ) 2000 м  в посл. час ливневой снег  10/6 1500 м кучево-дожд., средняя 
[Cb cap|Ac und]
-1.8 -2.1 98 -6  1036.5  0.8  737  299    -0.9  0.0     
18 15.02.18 260 (З) 2000 м  дымка{ливн. осадки}  10/4 2000 м кучево-дожд., средняя 
[Cb cap|Ac und]
-2.5 -2.8 98 -6  1036.9  0.3  737  300    -0.9  0.0     
21 15.02.18 230 (ЮЗ) 2000 м  дымка  10/3 1500 м кучево-дожд., средняя 
[Cb cap|Ac und]
-2.6 -3 97 -2  1036.6  -0.3  737  300           
00 16.02.18 тихо ()   4000 м  дымка  10/1 2000 м кучево-дожд., средняя 
[Cb cap|Ac und]
-2.1 -2.6 96 -2  1036.2  -0.3  737  299           
03 16.02.18 010 (С) 2000 м  дымка  10/0 средняя 
[Sc|Ac und]
-1.9 -2.3 97 -3  1037  0.8  737  299  -2.8         
06 16.02.18 060 (СВ) 4000 м  дымка  10/0 средняя, верхняя 
[Ac trans|Ci fib]
+3 +1.1 87 +1  1036.6  0.6  738  294  -2.8         
09 16.02.18 060 (СВ) 4000 м    8/0 средняя, верхняя 
[Ac trans|Ci fib]
+6.1 +1.3 71 +3  1034.6  -0.6  737  290           
12 16.02.18 240 (ЮЗ) 1400 м  дымка  10/8 60 м средняя 
[St|Ac und]
-0.3 -1.1 94 -5  1036.4  0.5  722  291           
15 16.02.18 250 (З) 1800 м  дымка{туман}  10/10 100 м 
[St]
-1.6 -2 97 -5  1037.3  0.6  738  299    +6.6       
18 16.02.18 260 (З) 1800 м  дымка  10/6 150 м средняя 
[St|Ac und]
-1.8 -2.5 95 -5  1037.3  738  299    +6.6       
21 16.02.18 270 (З) 1200 м  дымка  10/8 120 м средняя 
[St|Ac und]
-3.2 -3.5 98 -6  1036.8  -0.8  737  301           
00 17.02.18 270 (З) 1500 м  дымка{туман}  10/10 120 м 
[St]
-3.4 -3.5 99 -6  1036.2  -0.6  737  301           
03 17.02.18 250 (З) 1000 м  дымка{туман}  10/10 120 м 
[St]
-3 -3 100 -6  1036.4  0.3  737  300  -3.5         
06 17.02.18 270 (З) 2000 м  дымка{туман}  10/10 150 м 
[Sc]
-2.4 -2.9 96 -6  1036.1  -0.2  737  300  -3.5         
09 17.02.18 270 (З) 2200 м  дымка  10/10 120 м 
[Sc]
-1.4 -2.1 95 -5    -1.6  735  298           
12 17.02.18 250 (З) 2000 м  дымка  10/10 420 м 
[Sc]
-1.3 -2.3 93 -5  1033  -1.1  735  298           
15 17.02.18 250 (З) 1900 м  дымка  10/10 270 м 
[St]
-1.4 -2.1 95 -3  1033.2  0.2  735  298    -1.1       
18 17.02.18 320 (СЗ) 1900 м  дымка  10/10 180 м 
[St]
-1.2 -1.8 96 -1  1032  -1.1  734  297    -1.1       
21 17.02.18 тихо ()   2100 м  дымка  10/10 150 м 
[St]
-0.8 -1.5 95 -1  1030.7  -1.2  733  296           
00 18.02.18 260 (З) 1000 м  дымка{туман}  10/10 100 м 
[Sc]
-1.8 -1.9 99 -1  1029.4  -1.4  732  297           
Время (UTC), дата Ветер
(°,м/с) 
Видим.   Явления Облачность Т
(°С)
Тd
(°С)
f(%) Тe
(°С)
Pmin
(гПа)
dP
(гПа)
Po
(мм)
O2
(г/м3)
Тmin Tmax R s Состояние
почвы

Для получения пояснительной информации подведите курсор к названию столбца.

ПОГОДА в Худжанде - архив

Всё, что Вы хотите узнать о погоде в Худжанде - удобно и подробно!

Выберите нужную дату (начиная с 1 января 2015* года) и нажмите кнопку "Найти".
Будут отображены архивные сводки погоды по пункту Худжанд, начиная с указанной даты.


Отображать данные в формате CSV (для использования в таблицах Excel)


Внимание! Наш архив погоды предназначен исключительно для личного некоммерческого использования в познавательных целях. Если Вам необходимы официальные справки о состоянии погоды (для производственных, юридических, коммерческих и т.п. целей), обращайтесь в органы Росгидромета.

*Примечание: данная дата относится к архиву по метеостанциям СССР (Россия, СНГ, Балтия).
Архив по метеостанциям Зарубежной Европы и Азии (кроме Китая) хранится 10 дней, по другим регионам земного шара (Китай, Африка, Америка, Австралия, Океания) - 1 день.

Худжанд - район местоположения метеостанции


Название, широта, долгота, высота метеостанции:
Худжанд 40.2°ш. 69.7°д. 427 м над ур. моря [Таджикистан]

Дополнительная информация

В oтличие oт бoльшинства пoгoдных сайтoв мы публикуем пoдрoбную метеoинфoрмацию в детальнoм прoфессиoнальнoм фoрмате.

Характеристики температуры и влажнoсти вoздуха измеряются на высoте 2 м в тени вдали oт зданий и деревьев.
Скoрoсть ветра измеряется на высoте 10 м (на урoвне рoста челoвека скoрoсть ветра ниже в 1.5-2 раза). Если метеoстанция нахoдится в гoрoде или в лесу, тo скoрoсть ветра занижена на 2-4 м/с пo сравнению с oткрытым местoм. Скoрoсть ветра над акватoриями крупных рек и oзёр, а также на вершинах хoлмoв на 2-5 м/с выше, чем в oбычных услoвиях.
Атмoсфернoе давление в разных тoчках местнoсти мoжет значительнo oтличаться oт давления на метеoстанции, в зависимoсти oт услoвий рельефа (при пoдъёме на 10 м давление пoнижается примернo на 1 мм рт.ст.).